Погода в Самети

Россия / Костромская область     57°48′21″N   40°43′28″E
темп.,
°C
ветер,
м/с
пор.,
м/с
влажн.,
%
обл.,
%
осадки,
мм/ч
давл.,
гПа
погр.,
м
26 июля, пн
пн2600:00+14юз1156100 0.0 102111
03:00+16зюз3451100 0.0 102170
06:00+16зюз375293 0.0 1021179
09:00+21зсз354680 0.0 1021661
12:00+23з564192 0.0 10211461
15:00+24зсз5737100 0.0 10202595
18:00+23зсз57416 0.0 10201441
21:00+18зюз335924 0.0 102040
27 июля, вт
вт2700:00+16зсз236842 0.0 102038
03:00+13сз22850 0.0 102122
06:00+15ссз238211 0.0 1021108
09:00+21с225678 0.0 1021611
12:00+23с224812 0.0 10201116
15:00+25сз1346100 0.1 10181251
18:00+17в598923 1.4 1018186
21:00+15ююз229099 1.6 101826
28 июля, ср
ср2800:00+15юз22905 0.1 101824
03:00+14с119126 0.1 101810
06:00+16зюз11841 0.0 101750
09:00+21ююз226144 0.0 1016500
12:00+27зюз23400 0.0 10141721
15:00+28з243799 0.0 10112383
18:00+20всв236997 0.4 101045
21:00+19з51275100 0.5 1010347
29 июля, чт
чт2900:00+15зюз3694100 0.3 1009113
03:00+15юз359588 0.3 100885
06:00+16ююв269165 0.0 1006226
09:00+21юв456996 0.0 10051030
12:00+20ююв447696 0.1 1005594
15:00+22ю4468100 0.3 10041085
18:00+19зюз4584100 0.4 1004498
21:00+17зюз369713 0.9 1004191
30 июля, пт
пт3000:00+16зюз410972 0.0 1003226
03:00+15зюз410950 0.0 1004242
06:00+16з410910 0.0 1005309
09:00+21з69620 0.0 1006887
12:00+26з710340 0.0 10062131
15:00+28з710318 0.0 10062835
18:00+27сз593522 0.0 10062006
21:00+19вюв115893 0.0 100711